Regional Weather Roundup
Issued by NWS Little Rock, AR

Home | Current Version | Previous Version | Graphics & Text | Print | Product List | Glossary On
Versions: 1 2 3 4 5 6 7 8 9 10 11 12 13 14 15 16 17 18 19 20 21 22 23 24 25 26 27 28
000
ASUS44 KLZK 251905
RWRLZK

WEATHER ROUNDUP FOR ARKANSAS
NATIONAL WEATHER SERVICE LITTLE ROCK AR
200 PM CDT WED MAY 25 2016

NOTE: "FAIR" INDICATES FEW OR NO CLOUDS BELOW 12,000 FEET WITH NO
SIGNIFICANT WEATHER AND/OR OBSTRUCTIONS TO VISIBILITY.

ARZ001-003-010-029-252000-
NORTHWEST ARKANSAS

CITY           SKY/WX    TMP DP  RH WIND       PRES   REMARKS
FAYETTEVILLE   SUNNY     78  68  71 S18G29    29.99F
FORT SMITH     CLOUDY    76  66  71 E7        30.00F
HARRISON       CLOUDY    73  64  73 S15       30.02S
BENTONVILLE    SUNNY     81  63  54 S14G20    29.99S
ROGERS         MOSUNNY   78  65  63 SE12      29.99F
SILOAM SPGS    MOSUNNY   81  63  54 S18G26    29.98F
HIGHFILL       MOSUNNY   81  68  64 S18G28    29.97
$$

ARZ004-005-016-252000-
NORTH CENTRAL ARKANSAS

CITY           SKY/WX    TMP DP  RH WIND       PRES   REMARKS
BATESVILLE     CLOUDY    66  64  94 SE8       30.05F
FLIPPIN        CLOUDY   N/A N/A N/A SE6       29.98R
MTN HOME       CLOUDY    69  65  86 VRB7      29.99R
$$

ARZ040-041-252000-
WEST CENTRAL ARKANSAS

CITY           SKY/WX    TMP DP  RH WIND       PRES   REMARKS
MENA           PTSUNNY   84  77  79 SW5       30.04F HX  94
MOUNT IDA      CLOUDY    78  73  84 SE6       30.03F
$$

ARZ009-017-025-026-028-252000-
NORTHEAST ARKANSAS

CITY           SKY/WX    TMP DP  RH WIND       PRES   REMARKS
CORNING          N/A     73  68  83 SW21G29   30.12R
JONESBORO      HVY RAIN  72  68  87 W18G25    30.13R FOG
NEWPORT        TSTM      71  71 100 CALM      30.08F
WALNUT RIDGE   PTSUNNY   70  64  83 SW6       30.10F
BLYTHEVILLE    LGT RAIN  74  70  87 SW5       30.08F
$$

ARZ022-023-033-042-044-252000-
CENTRAL ARKANSAS

CITY           SKY/WX    TMP DP  RH WIND       PRES   REMARKS
LITTLE ROCK    LGT RAIN  71  63  75 N15G26    30.10R
N LITTLE ROCK    N/A     68  65  92 N7        30.04F
JACKSONVILLE   LGT RAIN  70  68  94 E7        30.05F
SEARCY         LGT RAIN  67  66  97 S6        30.07F
HOT SPRINGS    LGT RAIN  80  72  76 CALM      30.06F
RUSSELLVILLE   CLOUDY    71  66  84 E6        30.05S
CLINTON        FAIR      68  66  94 CALM      30.05F
$$

ARZ036-252000-
EAST ARKANSAS

CITY           SKY/WX    TMP DP  RH WIND       PRES   REMARKS
WEST MEMPHIS   CLOUDY    81  71  71 S12       30.07F HX  85
$$

ARZ050-053-066-070-073-252000-
SOUTHWEST ARKANSAS

CITY           SKY/WX    TMP DP  RH WIND       PRES   REMARKS
ARKADELPHIA    MOCLDY    85  80  85 VRB5      30.04S HX  99
CAMDEN         MOSUNNY   90  72  55 S10       30.03F HX  96
TEXARKANA      CLOUDY    86  73  65 S12       30.03R HX  93
EL DORADO      PTSUNNY   85  73  67 S12       30.05S HX  91
DE QUEEN       MOSUNNY   87  76  69 SW8       29.99F HX  97
$$

ARZ056-057-069-252000-
SOUTHEAST ARKANSAS

CITY           SKY/WX    TMP DP  RH WIND       PRES   REMARKS
PINE BLUFF     CLOUDY    84  71  65 S9        30.06F HX  89
STUTTGART      CLOUDY    84  70  61 S13       30.08S HX  88
MONTICELLO     CLOUDY    86  71  60 S9G18     30.07F HX  91

$$






USA.gov is the U.S. government's official web portal to all federal, state and local government web resources and services.